Station NLHC3 - 8461490 - New London, CT Image indicating link to RSS feed of recent meteorological observations for station NLHC3


Conditions at NLHC3 as of
(2:00 pm EDT)
1800 GMT on 05/26/2024:
     

Click on the graph icon in the table below to see a time series plot of the last five days of that observation.

5-day plot - Water Temperature Water Temperature (WTMP): 62.2 °F
NOS Water Level Observation Network Water Level
Previous observations
TIME
(EDT)
5-day plot - Wind Direction
WDIR
 
5-day plot - Wind Speed
WSPD
kts
5-day plot - Wind Gust
GST
kts
5-day plot - Wave Height
WVHT
ft
5-day plot - Dominant Wave Period
DPD
sec
5-day plot - Average Wave Period
APD
sec
5-day plot - Mean Wave Direction
MWD
 
5-day plot - Atmospheric Pressure
PRES
in
5-day plot - Pressure Tendency
PTDY
in
5-day plot - Air Temperature
ATMP
°F
5-day plot - Water Temperature
WTMP
°F
5-day plot - Dew Point
DEWP
°F
5-day plot - Salinity
SAL
psu
5-day plot - Visibility
VIS
nmi
5-day plot - Tide (above MLLW)
TIDE
ft
2024-05-26 01:54 pm---------- 62.4----
2024-05-26 01:48 pm-------29.93- 68.4 62.2----
2024-05-26 01:42 pm-------29.94- 68.4 62.4----
2024-05-26 01:36 pm-------29.94- 68.0 62.6----
2024-05-26 01:30 pm-------29.94-- 62.6----
2024-05-26 01:24 pm-------29.94-- 62.6----
2024-05-26 01:18 pm-------29.94- 67.6 62.6----
2024-05-26 01:12 pm-------29.94- 67.8 62.6----
2024-05-26 01:06 pm-------29.93- 68.2 62.2----
2024-05-26 01:00 pm-------29.93+0.01 68.5 61.9----
2024-05-26 12:54 pm-------29.93- 68.7 61.3----
2024-05-26 12:48 pm-------29.93- 68.5 61.0----
2024-05-26 12:42 pm-------29.93- 68.5 61.2----
2024-05-26 12:36 pm-------29.93- 68.7 61.3----
2024-05-26 12:30 pm-------29.93- 68.9 61.5----
2024-05-26 12:24 pm-------29.93- 69.4 61.5----
2024-05-26 12:18 pm-------29.92- 68.7 61.7----
2024-05-26 12:12 pm-------29.92- 68.5 61.7----
2024-05-26 12:06 pm-------29.93- 68.0 61.7----
2024-05-26 12:00 pm-------29.93+0.00 68.2 61.9----
2024-05-26 11:54 am-------29.93- 67.8 61.9----
2024-05-26 11:48 am-------29.93- 67.5 62.1----
2024-05-26 11:42 am-------29.93- 67.3 62.1----
2024-05-26 11:36 am-------29.93- 67.6 62.1----
2024-05-26 11:30 am-------29.93- 67.3 62.1----
2024-05-26 11:24 am-------29.93- 66.9 62.2----
2024-05-26 11:18 am-------29.93- 66.9 62.1----
2024-05-26 11:12 am-------29.93- 66.4 61.9----
2024-05-26 11:06 am-------29.93- 65.8 62.1----
2024-05-26 11:00 am-------29.93+0.01 65.8 62.6----
2024-05-26 10:54 am-------29.93- 65.3 62.6----
2024-05-26 10:48 am-------29.93- 65.1 63.0----
2024-05-26 10:42 am-------29.93- 65.3 63.1----
2024-05-26 10:36 am-------29.93- 64.6 63.7----
2024-05-26 10:30 am-------29.93- 64.4 64.2----
2024-05-26 10:24 am-------29.92- 64.2 64.0----
2024-05-26 10:18 am-------29.92- 64.4 63.9----
2024-05-26 10:12 am-------29.92- 63.9 63.7----
2024-05-26 10:06 am-------29.92- 64.2 65.1----
2024-05-26 10:00 am-------29.92+0.02 63.7 65.3----
2024-05-26 09:54 am-------29.92- 64.0 65.5----
2024-05-26 09:48 am-------29.92- 64.2 66.7----
2024-05-26 09:42 am-------29.92- 64.0 66.0----
2024-05-26 09:36 am-------29.92- 64.2 66.2----
2024-05-26 09:30 am-------29.92-- 66.7----
2024-05-26 09:24 am-------29.92-- 67.8----
2024-05-26 09:18 am-------29.92-- 69.1----
2024-05-26 09:12 am-------29.92-- 69.6----
2024-05-26 09:06 am-------29.92-- 69.4----
2024-05-26 09:00 am-------29.92+0.03- 69.8----
2024-05-26 08:54 am-------29.92-- 70.2----
2024-05-26 08:48 am-------29.92- 61.7 71.1----
2024-05-26 08:42 am-------29.92- 61.7 70.9----
2024-05-26 08:36 am-------29.92- 61.5 71.1----
2024-05-26 08:30 am-------29.92- 61.3 71.1----
2024-05-26 08:24 am-------29.92- 61.2 71.2----
2024-05-26 08:18 am-------29.92- 61.0 71.1----
2024-05-26 08:12 am-------29.92- 61.0 71.1----
2024-05-26 08:06 am-------29.92- 61.0 71.2----
2024-05-26 08:00 am-------29.92+0.04 60.8-----
2024-05-26 07:54 am-------29.92- 61.0-----
2024-05-26 07:48 am-------29.91- 60.6 71.2----
2024-05-26 07:42 am-------29.91- 60.6 71.2----
2024-05-26 07:36 am-------29.91- 60.3 71.2----
2024-05-26 07:30 am-------29.91- 60.3 71.4----
2024-05-26 07:24 am-------29.90- 60.1 71.2----
2024-05-26 07:18 am-------29.91-- 71.2----
2024-05-26 07:12 am-------29.91-- 71.2----
2024-05-26 07:06 am-------29.90-- 71.2----
2024-05-26 07:00 am-------29.90+0.02- 71.4----
2024-05-26 06:54 am-------29.90-- 71.8----
2024-05-26 06:48 am-------29.90-- 71.6----
2024-05-26 06:42 am-------29.90-- 71.6----
2024-05-26 06:36 am-------29.90-- 71.6----
2024-05-26 06:30 am-------29.89- 59.5 71.6----
2024-05-26 06:24 am-------29.89- 59.4 71.6----
2024-05-26 06:18 am-------29.89-- 71.8----
2024-05-26 06:12 am-------29.89-- 71.6----
2024-05-26 06:06 am-------29.89-- 71.6----
2024-05-26 06:00 am-------29.89+0.02 59.2 71.4----
2024-05-26 05:54 am-------29.89- 59.4 71.6----
2024-05-26 05:48 am-------29.89- 59.0 71.6----
2024-05-26 05:42 am-------29.89- 59.2 71.4----
2024-05-26 05:36 am-------29.89- 59.0 71.4----
2024-05-26 05:30 am-------29.89- 59.0 71.6----
2024-05-26 05:24 am-------29.89- 59.0 71.4----
2024-05-26 05:18 am-------29.88- 59.2 71.2----
2024-05-26 05:12 am-------29.88- 59.2 71.4----
2024-05-26 05:06 am-------29.88- 59.0 71.4----
2024-05-26 05:00 am-------29.88+0.01 59.0 71.6----
2024-05-26 04:54 am-------29.88- 58.8 71.6----
2024-05-26 04:48 am-------29.88-- 71.6----
2024-05-26 04:42 am-------29.88-- 71.6----
2024-05-26 04:36 am-------29.88-- 71.8----
2024-05-26 04:30 am-------29.88- 58.8 71.8----
2024-05-26 04:24 am-------29.88- 59.0 71.4----
2024-05-26 04:18 am-------29.88- 59.0 71.4----
2024-05-26 04:12 am-------29.88- 59.0 71.4----
2024-05-26 04:06 am-------29.88- 59.2 71.8----
2024-05-26 04:00 am-------29.88+0.00 59.4 72.0----
2024-05-26 03:54 am-------29.88- 59.4 72.0----
2024-05-26 03:48 am-------29.88- 59.5 71.8----
2024-05-26 03:42 am-------29.88- 59.4 71.8----
2024-05-26 03:36 am-------29.88- 59.5 71.8----
2024-05-26 03:30 am-------29.88- 59.4 71.6----
2024-05-26 03:24 am-------29.88- 58.8 71.8----
2024-05-26 03:18 am-------29.88- 58.6 71.8----
2024-05-26 03:12 am-------29.88- 58.8 71.8----
2024-05-26 03:06 am-------29.87- 59.0 72.0----
2024-05-26 03:00 am-------29.87-0.02 59.2 72.0----
2024-05-26 02:54 am-------29.88- 59.4 71.4----
2024-05-26 02:48 am-------29.88- 59.5 70.5----
2024-05-26 02:42 am-------29.88- 59.4 70.7----
2024-05-26 02:36 am-------29.87- 59.2 72.0----
2024-05-26 02:30 am-------29.87- 59.4 71.8----
2024-05-26 02:24 am-------29.87- 59.2 70.7----
2024-05-26 02:18 am-------29.86- 59.4 66.0----
2024-05-26 02:12 am-------29.87- 59.0 64.2----
2024-05-26 02:06 am-------29.87- 59.0 64.6----
2024-05-26 02:00 am-------29.87-0.02 59.0 63.7----
2024-05-26 01:54 am-------29.87- 59.2 63.1----
2024-05-26 01:48 am-------29.87- 59.4 63.0----
2024-05-26 01:42 am-------29.88- 59.4 62.4----
2024-05-26 01:36 am-------29.88- 59.2 62.1----
2024-05-26 01:30 am-------29.88- 59.4 61.9----
2024-05-26 01:24 am-------29.88- 59.4 62.1----
2024-05-26 01:18 am-------29.88- 59.4 61.9----
2024-05-26 01:12 am-------29.88- 59.4 62.1----
2024-05-26 01:06 am-------29.87- 59.5 62.1----
2024-05-26 01:00 am-------29.88-0.01 59.7 62.1----
2024-05-26 12:54 am-------29.88- 59.5 62.2----
2024-05-26 12:48 am-------29.88- 59.7 61.7----
2024-05-26 12:42 am-------29.88- 59.7 61.7----
2024-05-26 12:36 am-------29.88- 59.7 61.2----
2024-05-26 12:30 am-------29.88- 59.7 61.0----
2024-05-26 12:24 am-------29.88- 59.7 61.0----
2024-05-26 12:18 am-------29.88- 59.9 61.0----
2024-05-26 12:12 am-------29.88- 59.9 61.2----
2024-05-26 12:06 am-------29.89- 59.9 61.2----
2024-05-26 12:00 am-------29.89+0.01 59.7 61.2----
2024-05-25 11:54 pm-------29.89- 59.7 61.2----
2024-05-25 11:48 pm-------29.89- 59.5 61.2----
2024-05-25 11:42 pm-------29.89- 59.4 61.2----
2024-05-25 11:36 pm-------29.89- 59.4 60.8----
2024-05-25 11:30 pm-------29.89- 59.2 60.6----
2024-05-25 11:24 pm-------29.89- 59.5 60.8----
2024-05-25 11:18 pm-------29.89- 59.7 60.8----
2024-05-25 11:12 pm-------29.89- 60.3 60.8----
2024-05-25 11:06 pm-------29.89- 60.4 61.0----
2024-05-25 11:00 pm-------29.89+0.02 60.6 61.3----
2024-05-25 10:54 pm-------29.89- 60.6 61.5----
2024-05-25 10:48 pm-------29.89- 60.6 61.7----
2024-05-25 10:42 pm-------29.89- 60.6 61.7----
2024-05-25 10:36 pm-------29.89- 60.8 61.7----
2024-05-25 10:30 pm-------29.89- 60.6 61.9----
2024-05-25 10:24 pm-------29.89- 60.8 61.9----
2024-05-25 10:18 pm-------29.89- 61.0 61.9----
2024-05-25 10:12 pm-------29.89- 60.8 61.9----
2024-05-25 10:06 pm-------29.89- 61.2 62.1----
2024-05-25 10:00 pm-------29.89+0.01 61.3 62.1----
2024-05-25 09:54 pm-------29.89- 61.2 62.2----
2024-05-25 09:48 pm-------29.89- 61.2 62.1----
2024-05-25 09:42 pm-------29.90- 61.2 62.2----
2024-05-25 09:36 pm-------29.89- 60.8 62.1----
2024-05-25 09:30 pm-------29.89- 60.8 62.4----
2024-05-25 09:24 pm-------29.88- 60.8 62.4----
2024-05-25 09:18 pm-------29.88- 60.8 62.4----
2024-05-25 09:12 pm-------29.88- 61.0 62.4----
2024-05-25 09:06 pm-------29.88- 61.2 62.8----
2024-05-25 09:00 pm-------29.88- 61.7 63.0----
2024-05-25 08:54 pm-------29.88- 61.7 63.0----
2024-05-25 08:48 pm-------29.87- 61.9 63.1----
2024-05-25 08:42 pm-------29.87- 62.1 63.7----
2024-05-25 08:36 pm-------29.86- 62.4 63.9----
2024-05-25 08:30 pm-------29.86- 62.8 64.0----
2024-05-25 08:24 pm-------29.87- 63.0 64.2----
2024-05-25 08:18 pm-------29.86- 62.8 64.8----
2024-05-25 08:12 pm-------29.86- 62.8 65.8----
2024-05-25 08:06 pm-------29.87- 62.8 66.7----
2024-05-25 08:00 pm-------29.87-0.01 62.8 67.6----
2024-05-25 07:54 pm-------29.87- 63.1 70.0----
2024-05-25 07:48 pm-------29.87- 63.3 71.6----
2024-05-25 07:42 pm-------29.87- 63.9 72.7----
2024-05-25 07:36 pm-------29.87- 64.2 72.7----
2024-05-25 07:30 pm-------29.87-- 72.1----
2024-05-25 07:24 pm-------29.87-- 71.2----
2024-05-25 07:00 pm-------29.88+0.00 66.0 73.4----
2024-05-25 06:54 pm-------29.88- 66.0 72.9----
2024-05-25 06:48 pm-------29.88-- 72.9----
2024-05-25 06:42 pm-------29.87-- 73.2----
2024-05-25 06:36 pm-------29.87-- 73.2----
2024-05-25 06:30 pm-------29.87- 64.9 73.2----
2024-05-25 06:24 pm-------29.87- 64.8 73.2----
2024-05-25 06:18 pm-------29.87- 65.1 73.4----
2024-05-25 06:12 pm-------29.87- 65.3 73.6----
2024-05-25 06:06 pm-------29.87- 65.5 73.8----
2024-05-25 06:00 pm--------- 65.8 73.8----
2024-05-25 05:54 pm--------- 66.0 73.6----
2024-05-25 05:48 pm-------29.88-- 73.2----
2024-05-25 05:42 pm-------29.88-- 73.4----
2024-05-25 05:36 pm-------29.88-- 73.6----
2024-05-25 05:30 pm-------29.88- 66.4-----
2024-05-25 05:24 pm-------29.88- 66.2-----
2024-05-25 05:18 pm-------29.88- 66.4 72.5----
2024-05-25 05:12 pm-------29.88- 66.4 72.5----
2024-05-25 05:06 pm-------29.88- 66.2 72.1----
2024-05-25 05:00 pm-------29.88+0.00 66.2 72.5----
2024-05-25 04:54 pm-------29.88- 66.6 72.5----
2024-05-25 04:48 pm-------29.88-- 71.6----
2024-05-25 04:42 pm-------29.88-- 72.0----
2024-05-25 04:36 pm-------29.88-- 71.8----
2024-05-25 04:30 pm-------29.88- 66.4 72.1----
2024-05-25 04:24 pm-------29.88- 66.0 72.0----
2024-05-25 04:18 pm-------29.88- 66.0 71.4----
2024-05-25 04:12 pm-------29.88- 66.0 71.1----
2024-05-25 04:06 pm-------29.88- 66.0 69.8----
2024-05-25 04:00 pm-------29.88-0.02 66.0 68.5----
2024-05-25 03:54 pm-------29.88- 66.0 68.4----
2024-05-25 03:48 pm-------29.89- 66.2 67.8----
2024-05-25 03:42 pm-------29.89- 66.0 67.3----
2024-05-25 03:36 pm-------29.89- 66.0 67.3----
2024-05-25 03:30 pm-------29.89-- 67.3----
2024-05-25 03:24 pm-------29.88-- 67.1----
2024-05-25 03:18 pm-------29.88- 65.8 67.1----
2024-05-25 03:12 pm-------29.88- 66.2 67.1----
2024-05-25 03:06 pm-------29.88- 65.5 67.3----
2024-05-25 03:00 pm-------29.88-0.04 65.7 67.6----
2024-05-25 02:54 pm-------29.88- 66.4 67.5----
2024-05-25 02:48 pm-------29.88- 65.7 66.9----
2024-05-25 02:42 pm-------29.88- 65.7 67.1----
2024-05-25 02:36 pm-------29.88- 65.8 66.6----
2024-05-25 02:30 pm-------29.88- 65.8 65.7----
2024-05-25 02:24 pm-------29.88- 65.8 64.4----
2024-05-25 02:18 pm-------29.88- 65.8 64.4----
2024-05-25 02:12 pm-------29.88- 65.8 63.1----
2024-05-25 02:06 pm-------29.88- 66.2 62.8----
2024-05-25 02:00 pm-------29.88-0.04 65.7 62.6----
2024-05-25 01:54 pm-------29.88- 65.8 62.6----